Total_Precipitation_Accumulation
0.48 0.46 0.45 0.43 0.40 0.39 0.37 0.37 0.37 0.33 0.30 0.26 0.24 0.23 0.24 0.26 0.23 0.19 0.16 0.14 0.11 0.12 0.20 0.35 0.59 0.86 1.06 1.16 1.16 1.02 0.94 0.82 0.65 0.56 0.53 0.61 0.64 0.63 0.67 0.77 0.75 0.64 0.61
0.40 0.37 0.36 0.34 0.31 0.28 0.25 0.24 0.23 0.23 0.23 0.21 0.17 0.16 0.18 0.20 0.21 0.21 0.21 0.23 0.17 0.15 0.17 0.25 0.38 0.62 0.92 1.14 1.24 1.21 1.08 0.99 0.83 0.66 0.57 0.57 0.63 0.63 0.64 0.70 0.79 0.76 0.66
0.42 0.40 0.37 0.33 0.29 0.28 0.27 0.25 0.24 0.20 0.18 0.17 0.14 0.12 0.12 0.13 0.15 0.18 0.20 0.23 0.24 0.21 0.20 0.23 0.30 0.46 0.76 1.05 1.23 1.36 1.27 1.13 1.03 0.89 0.70 0.58 0.61 0.65 0.65 0.68 0.76 0.84 0.81
0.45 0.42 0.41 0.38 0.34 0.33 0.32 0.31 0.27 0.24 0.20 0.17 0.15 0.13 0.12 0.11 0.11 0.13 0.17 0.18 0.21 0.22 0.21 0.22 0.30 0.44 0.63 0.90 1.16 1.41 1.51 1.36 1.26 1.20 1.01 0.79 0.64 0.66 0.69 0.69 0.76 0.85 0.94
0.48 0.45 0.43 0.44 0.43 0.44 0.41 0.35 0.32 0.28 0.25 0.20 0.17 0.15 0.12 0.10 0.10 0.12 0.15 0.18 0.20 0.20 0.22 0.22 0.26 0.35 0.50 0.73 1.08 1.42 1.75 1.78 1.60 1.48 1.32 1.13 0.90 0.74 0.74 0.74 0.77 0.86 0.96
0.53 0.50 0.48 0.48 0.50 0.50 0.47 0.42 0.35 0.31 0.29 0.26 0.25 0.21 0.15 0.10 0.09 0.09 0.11 0.16 0.19 0.21 0.22 0.26 0.28 0.25 0.28 0.41 0.66 1.03 1.41 1.75 1.83 1.73 1.63 1.44 1.24 1.03 0.90 0.84 0.83 0.91 1.02
0.60 0.57 0.53 0.53 0.51 0.51 0.48 0.44 0.41 0.39 0.34 0.30 0.31 0.30 0.24 0.16 0.11 0.10 0.12 0.15 0.19 0.25 0.32 0.37 0.43 0.40 0.31 0.30 0.33 0.47 0.82 1.32 1.68 1.85 1.85 1.80 1.59 1.34 1.14 1.00 0.96 1.01 1.08
0.63 0.67 0.61 0.57 0.54 0.51 0.51 0.51 0.47 0.45 0.42 0.37 0.35 0.38 0.32 0.24 0.16 0.12 0.13 0.16 0.22 0.32 0.43 0.47 0.52 0.53 0.47 0.37 0.26 0.26 0.38 0.74 1.30 1.77 1.92 1.94 1.99 1.81 1.47 1.24 1.12 1.14 1.22
0.60 0.65 0.68 0.63 0.59 0.55 0.51 0.50 0.48 0.45 0.44 0.37 0.34 0.48 0.54 0.35 0.18 0.10 0.09 0.12 0.15 0.19 0.25 0.32 0.38 0.43 0.48 0.49 0.39 0.30 0.28 0.43 0.81 1.42 1.93 2.04 2.09 2.21 2.00 1.58 1.33 1.25 1.28
0.64 0.60 0.67 0.69 0.66 0.62 0.55 0.50 0.48 0.46 0.50 0.48 0.36 0.33 0.39 0.40 0.40 0.22 0.09 0.08 0.09 0.10 0.12 0.15 0.19 0.25 0.35 0.44 0.48 0.43 0.37 0.37 0.57 0.95 1.60 2.14 2.21 2.32 2.44 2.10 1.67 1.42 1.34
0.75 0.66 0.64 0.68 0.69 0.67 0.61 0.53 0.49 0.49 0.50 0.53 0.47 0.36 0.30 0.26 0.29 0.37 0.20 0.10 0.10 0.09 0.08 0.09 0.11 0.13 0.18 0.28 0.37 0.43 0.46 0.40 0.50 0.72 1.07 1.73 2.33 2.51 2.63 2.51 2.06 1.65 1.42
0.85 0.81 0.68 0.67 0.68 0.68 0.65 0.57 0.51 0.48 0.47 0.47 0.46 0.42 0.42 0.39 0.30 0.35 0.29 0.14 0.10 0.09 0.09 0.09 0.09 0.10 0.12 0.17 0.24 0.36 0.43 0.45 0.46 0.57 0.70 1.08 1.82 2.49 2.71 2.63 2.33 1.95 1.59
0.94 0.84 0.79 0.71 0.71 0.68 0.65 0.62 0.59 0.51 0.46 0.48 0.48 0.44 0.40 0.37 0.33 0.37 0.39 0.26 0.16 0.10 0.10 0.11 0.11 0.12 0.13 0.15 0.18 0.26 0.33 0.40 0.45 0.51 0.52 0.59 0.96 1.79 2.58 2.82 2.58 2.23 1.92
0.95 0.84 0.81 0.76 0.72 0.73 0.72 0.68 0.63 0.57 0.52 0.50 0.48 0.47 0.43 0.36 0.37 0.41 0.46 0.50 0.40 0.18 0.11 0.10 0.08 0.10 0.13 0.14 0.17 0.21 0.22 0.28 0.37 0.43 0.45 0.48 0.55 0.91 1.70 2.62 3.15 2.84 2.34
1.03 0.96 0.89 0.86 0.80 0.78 0.75 0.73 0.70 0.61 0.59 0.58 0.54 0.52 0.52 0.46 0.43 0.43 0.44 0.54 0.68 0.50 0.17 0.08 0.08 0.09 0.11 0.14 0.19 0.19 0.18 0.22 0.29 0.36 0.40 0.44 0.49 0.59 0.91 1.58 2.55 3.23 3.12
1.08 1.09 1.05 1.00 0.92 0.89 0.85 0.81 0.77 0.68 0.65 0.63 0.61 0.59 0.58 0.55 0.52 0.50 0.50 0.49 0.55 0.61 0.39 0.10 0.09 0.10 0.12 0.14 0.20 0.21 0.21 0.24 0.26 0.31 0.36 0.39 0.43 0.53 0.69 0.99 1.59 2.51 3.12
1.14 1.14 1.15 1.13 1.08 0.99 0.97 0.95 0.88 0.83 0.77 0.69 0.65 0.66 0.64 0.60 0.58 0.52 0.52 0.50 0.48 0.53 0.51 0.17 0.09 0.11 0.17 0.20 0.21 0.21 0.22 0.21 0.19 0.23 0.30 0.37 0.42 0.50 0.63 0.81 1.08 1.68 2.56
1.16 1.19 1.26 1.28 1.23 1.12 1.03 1.03 1.03 0.98 0.96 0.87 0.80 0.76 0.74 0.72 0.72 0.65 0.63 0.58 0.51 0.48 0.52 0.37 0.15 0.12 0.19 0.26 0.32 0.30 0.25 0.22 0.18 0.20 0.25 0.32 0.39 0.46 0.57 0.71 0.88 1.17 1.76
1.10 1.21 1.35 1.45 1.41 1.34 1.22 1.06 1.09 1.18 1.18 1.14 1.07 1.03 0.97 0.94 0.93 0.87 0.82 0.72 0.60 0.50 0.48 0.46 0.29 0.19 0.21 0.29 0.38 0.39 0.34 0.26 0.21 0.22 0.26 0.30 0.35 0.40 0.48 0.59 0.73 0.90 1.17
1.06 1.22 1.34 1.48 1.54 1.59 1.66 1.50 1.33 1.22 1.21 1.23 1.21 1.18 1.19 1.20 1.18 1.12 1.07 0.89 0.72 0.64 0.57 0.56 0.44 0.31 0.27 0.32 0.50 0.54 0.49 0.39 0.29 0.24 0.28 0.29 0.34 0.39 0.40 0.43 0.48 0.63 0.89
1.05 1.17 1.27 1.37 1.40 1.60 2.03 2.10 1.66 1.19 1.06 1.05 1.02 1.00 1.04 1.18 1.29 1.33 1.34 1.17 1.01 0.95 0.84 0.77 0.64 0.51 0.41 0.45 0.59 0.64 0.68 0.61 0.51 0.39 0.31 0.26 0.26 0.27 0.29 0.34 0.42 0.53 0.71
1.02 1.14 1.18 1.18 1.21 1.38 1.86 1.98 1.51 1.08 0.91 0.87 0.85 0.81 0.81 0.93 1.02 1.10 1.22 1.25 1.29 1.33 1.25 1.08 0.91 0.75 0.56 0.51 0.59 0.76 0.83 0.90 0.82 0.57 0.48 0.39 0.33 0.31 0.28 0.27 0.33 0.42 0.60
0.95 1.00 1.02 1.00 1.00 1.14 1.53 1.62 1.30 0.97 0.81 0.70 0.67 0.66 0.65 0.68 0.80 0.77 0.87 0.99 1.11 1.26 1.36 1.31 1.23 0.95 0.70 0.59 0.69 0.87 0.93 0.99 0.89 0.74 0.75 0.73 0.58 0.47 0.38 0.37 0.41 0.43 0.52
0.94 0.90 0.87 0.83 0.81 0.92 1.31 1.48 1.26 0.93 0.82 0.71 0.65 0.59 0.54 0.55 0.68 0.75 0.82 0.82 0.80 0.93 1.16 1.29 1.37 1.17 0.91 0.81 0.94 1.12 1.22 1.20 1.03 0.96 0.99 1.02 0.78 0.63 0.57 0.52 0.50 0.45 0.46
0.83 0.83 0.78 0.76 0.70 0.75 1.13 1.50 1.38 1.01 0.92 0.82 0.72 0.65 0.59 0.51 0.70 0.82 0.76 0.67 0.60 0.67 0.81 1.05 1.21 1.22 1.16 1.14 1.20 1.39 1.49 1.54 1.42 1.18 1.14 1.19 1.03 0.82 0.75 0.75 0.67 0.56 0.47
0.68 0.72 0.68 0.67 0.63 0.63 0.90 1.38 1.50 1.06 0.94 0.82 0.75 0.69 0.74 0.70 0.78 0.78 0.66 0.64 0.66 0.60 0.58 0.63 0.69 0.77 0.80 0.83 1.03 1.24 1.37 1.50 1.52 1.53 1.31 1.25 1.28 1.21 1.23 0.98 0.79 0.57 0.48